Location: Vale
(35.4830°N, 81.3830°W)
Time: 14:25:38
(UTC-05:00)

SR - All Passes

Search period start: 24 February 2017 00:00
Search period end: 06 March 2017 00:00
Orbit: 575 x 883 km, 66.7° (Epoch: 24 February)

Date Brightness Start Highest point End Pass type
(mag) Time Alt. Az. Time Alt. Az. Time Alt. Az.
24 Feb - 04:55:44 10° NNW 05:01:16 39° ENE 05:06:44 10° SE visible
24 Feb - 06:38:10 10° NW 06:43:14 30° WSW 06:48:12 10° SSW visible
24 Feb - 19:23:02 10° S 19:27:32 42° ESE 19:32:27 10° NE visible
24 Feb - 21:05:58 10° WSW 21:09:51 22° NW 21:14:01 10° N visible
25 Feb - 04:06:59 10° N 04:11:30 22° NE 04:15:59 10° E visible
25 Feb - 05:48:12 10° NW 05:54:03 60° WSW 05:59:46 10° S visible
25 Feb - 18:35:07 10° SSE 18:38:30 19° ESE 18:42:04 10° ENE visible
25 Feb - 20:15:29 10° SW 20:20:07 43° WNW 20:25:13 10° NNE visible
26 Feb - 03:19:10 10° NNE 03:21:32 12° NE 03:23:52 10° ENE visible
26 Feb - 04:58:44 10° NNW 05:04:41 71° ENE 05:10:30 10° SSE visible
26 Feb - 06:42:53 10° WNW 06:46:08 15° WSW 06:49:21 10° SW daylight
26 Feb - 19:25:49 10° SSW 19:30:38 89° ESE 19:35:59 10° NNE visible
26 Feb - 21:11:21 10° WNW 21:13:37 13° NW 21:15:57 10° NNW visible
27 Feb - 04:09:37 10° N 04:15:07 38° NE 04:20:32 10° ESE visible
27 Feb - 05:51:59 10° NW 05:57:07 31° WSW 06:02:09 10° SSW visible
27 Feb - 18:36:55 10° S 18:41:23 40° ESE 18:46:17 10° NE visible
27 Feb - 20:19:40 10° WSW 20:23:40 24° NW 20:27:57 10° N visible
28 Feb - 03:20:55 10° N 03:25:21 21° NE 03:29:43 10° E visible
28 Feb - 05:02:03 10° NW 05:07:56 63° WSW 05:13:39 10° SSE visible
28 Feb - 17:49:05 10° SSE 17:52:22 18° ESE 17:55:51 10° ENE daylight
28 Feb - 19:29:15 10° SW 19:33:57 46° WNW 19:39:07 10° NNE visible
01 Mar - 02:33:14 10° NNE 02:35:20 12° NE 02:37:26 10° ENE visible
01 Mar - 04:12:36 10° NNW 04:18:33 68° ENE 04:24:21 10° SE visible
01 Mar - 05:56:35 10° WNW 06:00:02 16° WSW 06:03:25 10° SW visible
01 Mar - 18:39:38 10° SSW 18:44:29 85° ESE 18:49:51 10° NNE visible
01 Mar - 20:24:54 10° WNW 20:27:25 13° NW 20:30:01 10° NNW visible
02 Mar - 03:23:31 10° N 03:28:58 36° NE 03:34:18 10° ESE visible
02 Mar - 05:05:47 10° NW 05:11:00 33° WSW 05:16:05 10° S visible
02 Mar - 17:50:47 10° S 17:55:15 38° ESE 18:00:07 10° NE daylight
02 Mar - 19:33:22 10° WSW 19:37:28 25° NW 19:41:53 10° N visible
03 Mar - 02:34:51 10° N 02:39:10 20° NE 02:43:26 10° E night (unlit)
03 Mar - 04:15:54 10° NNW 04:21:48 66° WSW 04:27:31 10° SSE visible
03 Mar - 17:03:03 10° SE 17:06:14 17° ESE 17:09:36 10° ENE daylight
03 Mar - 18:43:01 10° SW 18:47:47 48° WNW 18:53:01 10° NNE visible
04 Mar - 01:47:20 10° NNE 01:49:09 11° NE 01:50:56 10° ENE night (unlit)
04 Mar - 03:26:28 10° NNW 03:32:24 65° ENE 03:38:10 10° SE night (unlit)
04 Mar - 05:10:18 10° WNW 05:13:55 17° WSW 05:17:29 10° SW night (unlit)
04 Mar - 17:53:27 10° SSW 17:58:19 81° ESE 18:03:43 10° NNE daylight
04 Mar - 19:38:29 10° WNW 19:41:12 14° NW 19:44:03 10° NNW visible
05 Mar - 02:37:25 10° N 02:42:48 35° NE 02:48:05 10° ESE night (unlit)
05 Mar - 04:19:36 10° NW 04:24:53 34° WSW 04:30:01 10° S night (unlit)
05 Mar - 17:04:40 10° S 17:09:06 36° ESE 17:13:57 10° NE daylight
05 Mar - 18:47:05 10° WSW 18:51:17 26° NW 18:55:49 10° N visible
